TimeEDT,TemperatureF,Dew PointF,Humidity,Sea Level PressureIn,VisibilityMPH,Wind Direction,Wind SpeedMPH,Gust SpeedMPH,PrecipitationIn,Events,Conditions,WindDirDegrees,DateUTC
12:53 AM,57.2,55.4,94,29.75,7.0,NW,8.1,-,0.06,Rain,Light Rain,320,2012-03-26 04:53:00
12:56 AM,57.0,55.0,93,29.76,8.0,NW,9.2,-,0.06,Rain,Light Rain,320,2012-03-26 04:56:00
1:31 AM,57.2,55.4,94,29.74,5.0,NW,16.1,-,0.06,Rain,Light Rain,320,2012-03-26 05:31:00
1:56 AM,57.0,55.0,93,29.75,10.0,NW,12.7,-,0.07,,Overcast,320,2012-03-26 05:56:00
2:11 AM,57.2,55.4,94,29.74,10.0,NNW,9.2,-,N/A,,Overcast,330,2012-03-26 06:11:00
2:56 AM,57.0,55.0,93,29.74,10.0,NNW,10.4,-,N/A,,Overcast,330,2012-03-26 06:56:00
3:31 AM,57.2,55.4,94,29.73,10.0,NNW,10.4,-,0.00,Rain,Light Rain,330,2012-03-26 07:31:00
3:38 AM,57.2,55.4,94,29.73,10.0,NW,10.4,-,0.00,Rain,Light Rain,320,2012-03-26 07:38:00
3:56 AM,57.0,55.0,93,29.73,10.0,NW,11.5,-,0.01,Rain,Light Rain,320,2012-03-26 07:56:00
4:11 AM,57.2,55.4,94,29.73,10.0,NW,11.5,-,0.00,Rain,Light Rain,320,2012-03-26 08:11:00
4:24 AM,57.2,55.4,94,29.73,10.0,NNW,11.5,-,0.01,Rain,Light Rain,330,2012-03-26 08:24:00
4:56 AM,57.0,55.0,93,29.74,10.0,North,9.2,-,0.01,Rain,Light Rain,360,2012-03-26 08:56:00
5:56 AM,57.0,55.0,93,29.76,10.0,North,12.7,-,0.00,,Overcast,350,2012-03-26 09:56:00
6:14 AM,57.2,55.4,94,29.76,10.0,North,12.7,-,0.00,,Overcast,350,2012-03-26 10:14:00
6:56 AM,57.0,55.0,93,29.80,10.0,NNW,11.5,-,0.00,,Overcast,340,2012-03-26 10:56:00
7:56 AM,57.0,55.0,93,29.83,9.0,NW,10.4,-,N/A,,Overcast,320,2012-03-26 11:56:00
8:56 AM,59.0,55.9,90,29.86,10.0,NW,10.4,-,N/A,,Mostly Cloudy,320,2012-03-26 12:56:00
9:56 AM,62.1,55.9,80,29.87,10.0,NNW,13.8,20.7,N/A,,Overcast,340,2012-03-26 13:56:00
10:45 AM,64.4,53.6,68,29.88,10.0,North,15.0,24.2,N/A,,Mostly Cloudy,360,2012-03-26 14:45:00
10:56 AM,64.0,54.0,70,29.89,10.0,North,17.3,28.8,N/A,,Mostly Cloudy,360,2012-03-26 14:56:00
11:32 AM,66.2,53.6,64,29.88,10.0,North,15.0,-,N/A,,Mostly Cloudy,350,2012-03-26 15:32:00
11:40 AM,66.2,53.6,64,29.88,10.0,NNW,16.1,20.7,N/A,,Mostly Cloudy,340,2012-03-26 15:40:00
11:47 AM,66.2,53.6,64,29.88,10.0,North,16.1,-,N/A,,Scattered Clouds,350,2012-03-26 15:47:00
11:56 AM,68.0,54.0,61,29.88,10.0,NNW,13.8,-,N/A,,Scattered Clouds,340,2012-03-26 15:56:00
12:56 PM,71.1,52.0,51,29.89,10.0,NNW,17.3,24.2,N/A,,Partly Cloudy,330,2012-03-26 16:56:00
1:56 PM,72.0,48.0,43,29.87,10.0,NW,19.6,23.0,N/A,,Clear,320,2012-03-26 17:56:00
2:56 PM,73.9,46.0,37,29.86,10.0,North,13.8,-,N/A,,Clear,350,2012-03-26 18:56:00
3:56 PM,75.0,44.1,33,29.86,10.0,NW,18.4,23.0,N/A,,Clear,320,2012-03-26 19:56:00
4:56 PM,75.0,43.0,32,29.86,10.0,North,12.7,21.9,N/A,,Clear,350,2012-03-26 20:56:00
5:56 PM,75.0,46.0,36,29.88,10.0,NNW,10.4,-,N/A,,Clear,330,2012-03-26 21:56:00
6:56 PM,72.0,46.0,40,29.90,10.0,NNW,6.9,-,N/A,,Clear,330,2012-03-26 22:56:00
7:56 PM,66.0,46.9,50,29.92,10.0,NW,3.5,-,N/A,,Clear,310,2012-03-26 23:56:00
8:56 PM,60.1,53.1,78,29.96,10.0,Calm,Calm,-,N/A,,Clear,0,2012-03-27 00:56:00
9:56 PM,57.0,53.1,87,30.00,10.0,East,8.1,-,N/A,,Partly Cloudy,80,2012-03-27 01:56:00
10:17 PM,60.8,48.2,63,30.02,10.0,East,12.7,-,N/A,,Scattered Clouds,90,2012-03-27 02:17:00
10:56 PM,60.1,45.0,57,30.07,10.0,ENE,13.8,-,N/A,,Clear,60,2012-03-27 02:56:00
11:56 PM,57.0,41.0,55,30.10,10.0,NE,12.7,-,N/A,,Partly Cloudy,50,2012-03-27 03:56:00